Weather History for McCall, ID

Change the Weather History Date:

Tuesday, November 20, 2012

  Actual Average Record
Temperature  
Mean Temperature 43 °F 26 °F  
Max Temperature 45 °F 34 °F 56 °F (1936)
Min Temperature 40 °F 19 °F 2 °F (1942)
Degree Days  
Heating Degree Days 22 39  
Month to date heating degree days 610 685  
Since 1 July heating degree days 1699 2228  
Cooling Degree Days 0 0  
Month to date cooling degree days 0 0  
Year to date cooling degree days 172 25  
Moisture  
Dew Point 37 °F    
Average Humidity 83    
Maximum Humidity 100    
Minimum Humidity 65    
Precipitation  
Precipitation 0.44 in 0.09 in 1.15 in (1946)
Month to date precipitation 1.84 1.98  
Year to date precipitation 23.37 17.30  
Sea Level Pressure  
Sea Level Pressure 29.91 in    
Wind  
Wind Speed 11 mph (SSE)    
Max Wind Speed 28 mph    
Max Gust Speed 35 mph    
Visibility 10 miles    
Events Rain    
T = Trace of Precipitation, MM = Missing Value Source: NWS Daily Summary

Daily Weather History Graph

Daily Weather History Graph

Search for Another Location

Airport:

Trip Planner

Search our weather history database for the weather conditions in past years. The results will help you decide how hot, cold, wet, or windy it might be!

Date:

Astronomy

Nov. 20, 2012 Rise Set
Actual Time 7:49 AM MST 5:10 PM MST
Civil Twilight 7:16 AM MST 5:42 PM MST
Nautical Twilight 6:41 AM MST 6:18 PM MST
Astronomical Twilight 6:06 AM MST 6:53 PM MST
Moon 1:16 PM MST (11/20) No Moon Set
Length of Visible Light 10h 25m
Length of Day
9h 21m
First Quarter, 52% of the Moon is Illuminated
Nov 20
First Quarter
Nov 28
Full
Dec 6
Last Quarter
Dec 13
New
Dec 19
First Quarter

Hourly Weather History & Observations

Time (MST) Temp. Windchill Dew Point Humidity Pressure Visibility Wind Dir Wind Speed Gust Speed Precip Events Conditions
12:51 AM 43.0 °F 36.8 °F 35.1 °F 74% 30.00 in 10.0 mi SE 11.5 mph 19.6 mph 0.00 in Rain Light Rain
1:51 AM 43.0 °F 37.7 °F 34.0 °F 71% 29.98 in 10.0 mi SSE 9.2 mph - 0.00 in   Overcast
2:51 AM 44.1 °F 37.1 °F 33.1 °F 65% 29.98 in 10.0 mi SSE 15.0 mph 21.9 mph 0.00 in   Overcast
3:51 AM 45.0 °F 37.6 °F 33.1 °F 63% 29.97 in 10.0 mi South 17.3 mph 26.5 mph N/A   Overcast
4:51 AM 45.0 °F 38.2 °F 33.1 °F 63% 29.95 in 10.0 mi SSE 15.0 mph 25.3 mph N/A   Overcast
5:51 AM 44.1 °F 38.1 °F 33.1 °F 65% 29.95 in 10.0 mi SSE 11.5 mph 20.7 mph N/A   Overcast
6:51 AM 43.0 °F 36.0 °F 35.1 °F 74% 29.98 in 10.0 mi South 13.8 mph 23.0 mph 0.01 in Rain Light Rain
7:51 AM 42.1 °F 34.9 °F 37.0 °F 82% 29.99 in 7.0 mi SSE 13.8 mph 18.4 mph 0.04 in Rain Light Rain
8:51 AM 41.0 °F 34.3 °F 37.0 °F 86% 29.99 in 4.0 mi SE 11.5 mph - 0.12 in Rain Rain
9:51 AM 41.0 °F 35.8 °F 37.9 °F 89% 29.97 in 10.0 mi South 8.1 mph - 0.04 in Rain Light Rain
10:17 AM 42.8 °F 38.6 °F 37.4 °F 81% 29.95 in 10.0 mi SSE 6.9 mph - 0.02 in Rain Light Rain
10:43 AM 42.8 °F 36.6 °F 37.4 °F 81% 29.95 in 10.0 mi South 11.5 mph - 0.03 in Rain Light Rain
10:51 AM 42.1 °F 35.2 °F 37.0 °F 82% 29.94 in 10.0 mi SSE 12.7 mph - 0.03 in   Overcast
11:20 AM 42.8 °F 36.2 °F 37.4 °F 81% 29.94 in 10.0 mi SSE 12.7 mph - 0.00 in Rain Light Rain
11:51 AM 43.0 °F 35.4 °F 39.0 °F 86% 29.92 in 10.0 mi South 16.1 mph 25.3 mph 0.00 in Rain Light Rain
12:16 PM 42.8 °F 35.1 °F 37.4 °F 81% 29.91 in 10.0 mi SSE 16.1 mph 21.9 mph 0.01 in Rain Light Rain
12:51 PM 44.1 °F 35.9 °F 37.9 °F 79% 29.88 in 10.0 mi SSE 19.6 mph 26.5 mph 0.01 in Rain Light Rain
1:51 PM 43.0 °F 34.8 °F 37.0 °F 80% 29.88 in 10.0 mi South 18.4 mph - 0.00 in   Overcast
2:51 PM 44.1 °F 36.8 °F 37.0 °F 76% 29.85 in 10.0 mi SSE 16.1 mph 28.8 mph 0.00 in Rain Light Rain
3:51 PM 43.0 °F 35.4 °F 37.0 °F 80% 29.87 in 10.0 mi SSE 16.1 mph 26.5 mph 0.02 in Rain Light Rain
4:51 PM 43.0 °F 36.4 °F 37.0 °F 80% 29.87 in 10.0 mi SE 12.7 mph - 0.01 in Rain Light Rain
5:51 PM 43.0 °F 38.2 °F 37.0 °F 80% 29.85 in 10.0 mi SSE 8.1 mph - 0.00 in   Mostly Cloudy
6:51 PM 43.0 °F 38.2 °F 37.0 °F 80% 29.84 in 10.0 mi SSE 8.1 mph - 0.02 in Rain Light Rain
7:51 PM 41.0 °F 39.0 °F 37.9 °F 89% 29.84 in 9.0 mi WSW 3.5 mph - 0.03 in Rain Light Rain
8:36 PM 41.0 °F 39.0 °F 37.4 °F 87% 29.85 in 8.0 mi SSW 3.5 mph - 0.06 in Rain Light Rain
8:44 PM 41.0 °F - 37.4 °F 87% 29.85 in 9.0 mi Calm Calm - 0.06 in Rain Light Rain
8:51 PM 39.9 °F - 39.0 °F 97% 29.86 in 10.0 mi Calm Calm - 0.06 in Rain Light Rain
9:51 PM 41.0 °F 38.0 °F 37.9 °F 89% 29.83 in 10.0 mi East 4.6 mph - 0.02 in Rain Light Rain
10:51 PM 41.0 °F - 37.9 °F 89% 29.80 in 10.0 mi Calm Calm - 0.02 in Rain Light Rain
11:51 PM 39.9 °F 37.8 °F 37.9 °F 93% 29.76 in 10.0 mi NE 3.5 mph - 0.01 in Rain Light Rain